Regional Weather Roundup
Issued by NWS

Home | Current Version | Previous Version | Graphics & Text | Print | Product List | Glossary On
Versions: 1 2 3 4 5 6 7 8 9 10 11 12 13 14 15 16 17 18 19 20 21 22 23 24 25 26 27 28 29 30 31 32 33 34 35 36 37 38 39 40 41 42 43 44 45 46 47 48 49 50
000
ASUS44 KMEG 041800
RWRTN
TENNESSEE HOURLY STATE WEATHER ROUNDUP
NATIONAL WEATHER SERVICE MEMPHIS TN
100 PM CDT FRI SEP 04 2015

TNZ002-004-019-021-049-052-054-088>092-041900-
WEST TENNESSEE

CITY           SKY/WX    TMP DP  RH WIND       PRES   REMARKS
MEMPHIS INTL   PTSUNNY   93  70  46 CALM      30.01F HX  99
NWS MEMPHIS      N/A     91 N/A N/A MISG        N/A
JACKSON        MOSUNNY   90  73  57 E5        30.02F HX  98
DYERSBURG      SUNNY     90  72  55 CALM      30.02F HX  96
UNION CITY     SUNNY     91  70  49 VRB3      30.01F HX  97
PARIS          SUNNY     90  70  51 NE6       30.04F HX  95
$$

TNZ008-025-027-028-033-062-065-066-041900-
NORTH MIDDLE TENNESSEE

CITY           SKY/WX    TMP DP  RH WIND       PRES   REMARKS
NASHVILLE      MOSUNNY   92  63  38 E5        30.04F HX  93
CLARKSVILLE    SUNNY     91  65  41 VRB5      30.03F HX  93
COOKEVILLE     MOSUNNY   91  70  49 NE7       30.06S HX  97
CROSSVILLE     MOSUNNY   86  62  44 E7        30.12S
$$

TNZ061-075-076-078-094-096-097-041900-
SOUTH MIDDLE TENNESSEE

CITY           SKY/WX    TMP DP  RH WIND       PRES   REMARKS
WINCHESTER     MOSUNNY   88  66  48 CALM      30.05S HX  90
SHELBYVILLE    MOSUNNY   91  70  49 VRB3      30.05F HX  97
$$

TNZ017-018-042-046-047-041900-
NORTHEAST TENNESSEE

CITY           SKY/WX    TMP DP  RH WIND       PRES   REMARKS
TRI CITIES     MOSUNNY   88  66  48 VRB3      30.09F HX  90
$$

TNZ012-013-036-069-073-074-041900-
CENTRAL EAST TENNESSEE

CITY           SKY/WX    TMP DP  RH WIND       PRES   REMARKS
KNOXVILLE      MOSUNNY   89  65  44 E12       30.04F HX  91
OAK RIDGE      SUNNY     90  66  45 VRB6      30.06F HX  92
GATLINBURG     CLEAR     90  61  37 E7        30.04F
$$

TNZ083-085-099-041900-
SOUTHEAST TENNESSEE

CITY           SKY/WX    TMP DP  RH WIND       PRES   REMARKS
CHATTANOOGA    MOSUNNY   91  70  49 N10       30.03F HX  96
$$

SKY/WX REPORTED AS FAIR MEANS FEW OR NO CLOUDS BELOW
12 THOUSAND FEET.




USA.gov is the U.S. government's official web portal to all federal, state and local government web resources and services.